owner,sensor,date,latitude,longitude,vertical_datum,wind_speed,wind_to_direction,wind_speed_of_gust,qcFlag 
NDBC,ioos:station:wmo:42056:1,2016-11-01T00:30:00Z,19.8020,-84.8570,5.0,7.0,60.0,8.0,'1111122,1111122,1111122' 
NDBC,ioos:station:wmo:42056:1,2016-11-01T01:40:00Z,19.8020,-84.8570,5.0,6.0,60.0,7.0,'1111122,1111122,1111122' 
NDBC,ioos:station:wmo:42056:1,2016-11-01T02:40:00Z,19.8020,-84.8570,5.0,7.0,50.0,8.0,'1111122,1111122,1111122' 
NDBC,ioos:station:wmo:42056:1,2016-11-01T03:40:00Z,19.8020,-84.8570,5.0,6.0,50.0,8.0,'1111122,1111122,1111122' 
NDBC,ioos:station:wmo:42056:1,2016-11-01T04:40:00Z,19.8020,-84.8570,5.0,6.0,60.0,7.0,'1111122,1111122,1111122' 
NDBC,ioos:station:wmo:42056:1,2016-11-01T05:40:00Z,19.8020,-84.8570,5.0,6.0,60.0,7.0,'1111122,1111122,1111122' 
NDBC,ioos:station:wmo:42056:1,2016-11-01T06:40:00Z,19.8020,-84.8570,5.0,6.0,70.0,8.0,'1111122,1111122,1111122' 
NDBC,ioos:station:wmo:42056:1,2016-11-01T07:40:00Z,19.8020,-84.8570,5.0,5.0,60.0,6.0,'1111122,1111122,1111122' 
NDBC,ioos:station:wmo:42056:1,2016-11-01T08:50:00Z,19.8020,-84.8570,5.0,6.0,60.0,7.0,'1111122,1111122,1111122' 
NDBC,ioos:station:wmo:42056:1,2016-11-01T09:40:00Z,19.8020,-84.8570,5.0,6.0,60.0,7.0,'1111122,1111122,1111122' 
NDBC,ioos:station:wmo:42056:1,2016-11-01T10:40:00Z,19.8020,-84.8570,5.0,6.0,70.0,7.0,'1111122,1111122,1111122' 
NDBC,ioos:station:wmo:42056:1,2016-11-01T11:40:00Z,19.8020,-84.8570,5.0,5.0,50.0,7.0,'1111122,1111122,1111122' 
NDBC,ioos:station:wmo:42056:1,2016-11-01T12:40:00Z,19.8020,-84.8570,5.0,6.0,60.0,6.0,'1111122,1111122,1111122' 
NDBC,ioos:station:wmo:42056:1,2016-11-01T13:40:00Z,19.8020,-84.8570,5.0,6.0,70.0,7.0,'1111122,1111122,1111122' 
NDBC,ioos:station:wmo:42056:1,2016-11-01T14:40:00Z,19.8020,-84.8570,5.0,6.0,70.0,8.0,'1111122,1111122,1111122' 
NDBC,ioos:station:wmo:42056:1,2016-11-01T15:40:00Z,19.8020,-84.8570,5.0,7.0,70.0,8.0,'1111122,1111122,1111122' 
NDBC,ioos:station:wmo:42056:1,2016-11-01T16:40:00Z,19.8020,-84.8570,5.0,9.0,80.0,10.0,'1111122,1111122,1111122' 
NDBC,ioos:station:wmo:42056:1,2016-11-01T17:40:00Z,19.8020,-84.8570,5.0,4.0,60.0,5.0,'1111122,1111122,1111122' 
NDBC,ioos:station:wmo:42056:1,2016-11-01T18:40:00Z,19.8020,-84.8570,5.0,7.0,70.0,8.0,'1111122,1111122,1111122' 
NDBC,ioos:station:wmo:42056:1,2016-11-01T19:40:00Z,19.8020,-84.8570,5.0,8.0,90.0,9.0,'1111122,1111122,1111122' 
NDBC,ioos:station:wmo:42056:1,2016-11-01T20:40:00Z,19.8020,-84.8570,5.0,8.0,100.0,9.0,'1111122,1111122,1111122' 
NDBC,ioos:station:wmo:42056:1,2016-11-01T21:40:00Z,19.8020,-84.8570,5.0,7.0,90.0,8.0,'1111122,1111122,1111122' 
NDBC,ioos:station:wmo:42056:1,2016-11-01T22:50:00Z,19.8020,-84.8570,5.0,6.0,60.0,9.0,'1111122,1111122,1111122' 
NDBC,ioos:station:wmo:42056:1,2016-11-01T23:40:00Z,19.8020,-84.8570,5.0,7.0,100.0,10.0,'1111122,1111122,1111122' 
NDBC,ioos:station:wmo:42056:1,2016-11-02T00:40:00Z,19.8020,-84.8570,5.0,12.0,70.0,15.0,'1111122,1111122,1111122' 
NDBC,ioos:station:wmo:42056:1,2016-11-02T17:40:00Z,19.8020,-84.8570,5.0,9.0,70.0,11.0,'1111122,1111122,1111122' 
NDBC,ioos:station:wmo:42056:1,2016-11-02T18:40:00Z,19.8020,-84.8570,5.0,8.0,70.0,10.0,'1111122,1111122,1111122' 
NDBC,ioos:station:wmo:42056:1,2016-11-02T19:40:00Z,19.8020,-84.8570,5.0,8.0,70.0,10.0,'1111122,1111122,1111122' 
NDBC,ioos:station:wmo:42056:1,2016-11-02T20:40:00Z,19.8020,-84.8570,5.0,8.0,70.0,10.0,'1111122,1111122,1111122' 
NDBC,ioos:station:wmo:42056:1,2016-11-02T21:50:00Z,19.8020,-84.8570,5.0,8.0,70.0,10.0,'1111122,1111122,1111122' 
NDBC,ioos:station:wmo:42056:1,2016-11-02T22:40:00Z,19.8020,-84.8570,5.0,8.0,70.0,10.0,'1111122,1111122,1111122' 
NDBC,ioos:station:wmo:42056:1,2016-11-02T23:40:00Z,19.8020,-84.8570,5.0,8.0,60.0,10.0,'1111122,1111122,1111122' 
NDBC,ioos:station:wmo:42056:1,2016-11-03T00:40:00Z,19.8020,-84.8570,5.0,10.0,70.0,12.0,'1111122,1111122,1111122' 
NDBC,ioos:station:wmo:42056:1,2016-11-03T01:30:00Z,19.8020,-84.8570,5.0,10.0,70.0,13.0,'1111122,1111122,1111122' 
NDBC,ioos:station:wmo:42056:1,2016-11-03T02:40:00Z,19.8020,-84.8570,5.0,11.0,70.0,13.0,'1111122,1111122,1111122' 
NDBC,ioos:station:wmo:42056:1,2016-11-03T03:40:00Z,19.8020,-84.8570,5.0,10.0,70.0,13.0,'1111122,1111122,1111122' 
NDBC,ioos:station:wmo:42056:1,2016-11-03T04:40:00Z,19.8020,-84.8570,5.0,10.0,70.0,12.0,'1111122,1111122,1111122' 
NDBC,ioos:station:wmo:42056:1,2016-11-03T05:40:00Z,19.8020,-84.8570,5.0,9.0,70.0,11.0,'1111122,1111122,1111122' 
NDBC,ioos:station:wmo:42056:1,2016-11-03T06:50:00Z,19.8020,-84.8570,5.0,8.0,70.0,11.0,'1111122,1111122,1111122' 
NDBC,ioos:station:wmo:42056:1,2016-11-03T07:40:00Z,19.8020,-84.8570,5.0,8.0,60.0,10.0,'1111122,1111122,1111122' 
NDBC,ioos:station:wmo:42056:1,2016-11-03T08:50:00Z,19.8020,-84.8570,5.0,8.0,50.0,10.0,'1111122,1111122,1111122' 
NDBC,ioos:station:wmo:42056:1,2016-11-03T09:40:00Z,19.8020,-84.8570,5.0,8.0,40.0,11.0,'1111122,1111122,1111122' 
NDBC,ioos:station:wmo:42056:1,2016-11-03T10:40:00Z,19.8020,-84.8570,5.0,11.0,60.0,14.0,'1111122,1111122,1111122' 
NDBC,ioos:station:wmo:42056:1,2016-11-03T11:40:00Z,19.8020,-84.8570,5.0,11.0,50.0,13.0,'1111122,1111122,1111122' 
NDBC,ioos:station:wmo:42056:1,2016-11-03T12:50:00Z,19.8020,-84.8570,5.0,10.0,60.0,12.0,'1111122,1111122,1111122' 
NDBC,ioos:station:wmo:42056:1,2016-11-03T13:30:00Z,19.8020,-84.8570,5.0,10.0,60.0,12.0,'1111122,1111122,1111122' 
NDBC,ioos:station:wmo:42056:1,2016-11-03T14:40:00Z,19.8020,-84.8570,5.0,8.0,60.0,10.0,'1111122,1111122,1111122' 
NDBC,ioos:station:wmo:42056:1,2016-11-03T15:40:00Z,19.8020,-84.8570,5.0,9.0,40.0,12.0,'1111122,1111122,1111122' 
NDBC,ioos:station:wmo:42056:1,2016-11-03T16:40:00Z,19.8020,-84.8570,5.0,10.0,50.0,12.0,'1111122,1111122,1111122' 
NDBC,ioos:station:wmo:42056:1,2016-11-03T17:40:00Z,19.8020,-84.8570,5.0,10.0,40.0,13.0,'1111122,1111122,1111122' 
NDBC,ioos:station:wmo:42056:1,2016-11-03T18:40:00Z,19.8020,-84.8570,5.0,9.0,40.0,12.0,'1111122,1111122,1111122' 
NDBC,ioos:station:wmo:42056:1,2016-11-03T19:40:00Z,19.8020,-84.8570,5.0,10.0,70.0,12.0,'1111122,1111122,1111122' 
NDBC,ioos:station:wmo:42056:1,2016-11-03T20:40:00Z,19.8020,-84.8570,5.0,10.0,70.0,12.0,'1111122,1111122,1111122' 
NDBC,ioos:station:wmo:42056:1,2016-11-03T21:40:00Z,19.8020,-84.8570,5.0,8.0,70.0,11.0,'1111122,1111122,1111122' 
NDBC,ioos:station:wmo:42056:1,2016-11-03T22:40:00Z,19.8020,-84.8570,5.0,10.0,70.0,12.0,'1111122,1111122,1111122' 
NDBC,ioos:station:wmo:42056:1,2016-11-03T23:50:00Z,19.8020,-84.8570,5.0,8.0,90.0,10.0,'1111122,1111122,1111122' 
NDBC,ioos:station:wmo:42056:1,2016-11-04T00:40:00Z,19.8020,-84.8570,5.0,9.0,60.0,11.0,'1111122,1111122,1111122' 
NDBC,ioos:station:wmo:42056:1,2016-11-04T02:30:00Z,19.8020,-84.8570,5.0,9.0,60.0,11.0,'1111122,1111122,1111122' 
NDBC,ioos:station:wmo:42056:1,2016-11-04T03:40:00Z,19.8020,-84.8570,5.0,8.0,60.0,10.0,'1111122,1111122,1111122' 
NDBC,ioos:station:wmo:42056:1,2016-11-04T04:50:00Z,19.8020,-84.8570,5.0,8.0,60.0,10.0,'1111122,1111122,1111122' 
NDBC,ioos:station:wmo:42056:1,2016-11-04T05:50:00Z,19.8020,-84.8570,5.0,7.0,50.0,9.0,'1111122,1111122,1111122' 
NDBC,ioos:station:wmo:42056:1,2016-11-04T06:40:00Z,19.8020,-84.8570,5.0,8.0,50.0,10.0,'1111122,1111122,1111122' 
NDBC,ioos:station:wmo:42056:1,2016-11-04T07:40:00Z,19.8020,-84.8570,5.0,8.0,50.0,10.0,'1111122,1111122,1111122' 
NDBC,ioos:station:wmo:42056:1,2016-11-04T08:40:00Z,19.8020,-84.8570,5.0,8.0,60.0,10.0,'1111122,1111122,1111122' 
NDBC,ioos:station:wmo:42056:1,2016-11-04T09:50:00Z,19.8020,-84.8570,5.0,7.0,60.0,9.0,'1111122,1111122,1111122' 
NDBC,ioos:station:wmo:42056:1,2016-11-04T10:40:00Z,19.8020,-84.8570,5.0,8.0,50.0,9.0,'1111122,1111122,1111122' 
NDBC,ioos:station:wmo:42056:1,2016-11-04T11:40:00Z,19.8020,-84.8570,5.0,8.0,50.0,9.0,'1111122,1111122,1111122' 
NDBC,ioos:station:wmo:42056:1,2016-11-04T12:40:00Z,19.8020,-84.8570,5.0,8.0,50.0,9.0,'1111122,1111122,1111122' 
NDBC,ioos:station:wmo:42056:1,2016-11-04T13:40:00Z,19.8020,-84.8570,5.0,7.0,60.0,9.0,'1111122,1111122,1111122' 
NDBC,ioos:station:wmo:42056:1,2016-11-04T14:50:00Z,19.8020,-84.8570,5.0,7.0,50.0,8.0,'1111122,1111122,1111122' 
NDBC,ioos:station:wmo:42056:1,2016-11-04T15:40:00Z,19.8020,-84.8570,5.0,8.0,40.0,9.0,'1111122,1111122,1111122' 
NDBC,ioos:station:wmo:42056:1,2016-11-04T16:40:00Z,19.8020,-84.8570,5.0,7.0,40.0,9.0,'1111122,1111122,1111122' 
NDBC,ioos:station:wmo:42056:1,2016-11-04T17:50:00Z,19.8020,-84.8570,5.0,7.0,40.0,8.0,'1111122,1111122,1111122' 
NDBC,ioos:station:wmo:42056:1,2016-11-04T18:40:00Z,19.8020,-84.8570,5.0,7.0,40.0,8.0,'1111122,1111122,1111122' 
NDBC,ioos:station:wmo:42056:1,2016-11-04T19:40:00Z,19.8020,-84.8570,5.0,7.0,40.0,8.0,'1111122,1111122,1111122' 
NDBC,ioos:station:wmo:42056:1,2016-11-04T20:40:00Z,19.8020,-84.8570,5.0,7.0,30.0,9.0,'1111122,1111122,1111122' 
NDBC,ioos:station:wmo:42056:1,2016-11-04T21:40:00Z,19.8020,-84.8570,5.0,8.0,30.0,10.0,'1111122,1111122,1111122' 
NDBC,ioos:station:wmo:42056:1,2016-11-04T22:40:00Z,19.8020,-84.8570,5.0,8.0,40.0,10.0,'1111122,1111122,1111122' 
NDBC,ioos:station:wmo:42056:1,2016-11-04T23:40:00Z,19.8020,-84.8570,5.0,9.0,30.0,11.0,'1111122,1111122,1111122' 
NDBC,ioos:station:wmo:42056:1,2016-11-05T00:40:00Z,19.8020,-84.8570,5.0,10.0,60.0,12.0,'1111122,1111122,1111122' 
NDBC,ioos:station:wmo:42056:1,2016-11-05T01:40:00Z,19.8020,-84.8570,5.0,9.0,60.0,12.0,'1111122,1111122,1111122' 
NDBC,ioos:station:wmo:42056:1,2016-11-05T02:50:00Z,19.8020,-84.8570,5.0,7.0,70.0,10.0,'1111122,1111122,1111122' 
NDBC,ioos:station:wmo:42056:1,2016-11-05T03:50:00Z,19.8020,-84.8570,5.0,8.0,60.0,10.0,'1111122,1111122,1111122' 
NDBC,ioos:station:wmo:42056:1,2016-11-05T04:40:00Z,19.8020,-84.8570,5.0,6.0,100.0,8.0,'1111122,1111122,1111122' 
NDBC,ioos:station:wmo:42056:1,2016-11-05T05:50:00Z,19.8020,-84.8570,5.0,7.0,60.0,8.0,'1111122,1111122,1111122' 
NDBC,ioos:station:wmo:42056:1,2016-11-05T06:40:00Z,19.8020,-84.8570,5.0,8.0,40.0,10.0,'1111122,1111122,1111122' 
NDBC,ioos:station:wmo:42056:1,2016-11-05T07:40:00Z,19.8020,-84.8570,5.0,8.0,40.0,10.0,'1111122,1111122,1111122' 
NDBC,ioos:station:wmo:42056:1,2016-11-05T08:40:00Z,19.8020,-84.8570,5.0,8.0,40.0,10.0,'1111122,1111122,1111122' 
NDBC,ioos:station:wmo:42056:1,2016-11-05T09:40:00Z,19.8020,-84.8570,5.0,7.0,50.0,9.0,'1111122,1111122,1111122' 
NDBC,ioos:station:wmo:42056:1,2016-11-05T10:40:00Z,19.8020,-84.8570,5.0,8.0,40.0,10.0,'1111122,1111122,1111122' 
NDBC,ioos:station:wmo:42056:1,2016-11-05T11:40:00Z,19.8020,-84.8570,5.0,9.0,30.0,10.0,'1111122,1111122,1111122' 
NDBC,ioos:station:wmo:42056:1,2016-11-05T12:40:00Z,19.8020,-84.8570,5.0,6.0,30.0,8.0,'1111122,1111122,1111122' 
NDBC,ioos:station:wmo:42056:1,2016-11-05T13:40:00Z,19.8020,-84.8570,5.0,6.0,30.0,8.0,'1111122,1111122,1111122' 
NDBC,ioos:station:wmo:42056:1,2016-11-05T14:40:00Z,19.8020,-84.8570,5.0,7.0,50.0,9.0,'1111122,1111122,1111122' 
NDBC,ioos:station:wmo:42056:1,2016-11-05T15:40:00Z,19.8020,-84.8570,5.0,7.0,60.0,9.0,'1111122,1111122,1111122' 
NDBC,ioos:station:wmo:42056:1,2016-11-05T16:40:00Z,19.8020,-84.8570,5.0,7.0,50.0,9.0,'1111122,1111122,1111122' 
NDBC,ioos:station:wmo:42056:1,2016-11-05T17:40:00Z,19.8020,-84.8570,5.0,7.0,60.0,8.0,'1111122,1111122,1111122' 
NDBC,ioos:station:wmo:42056:1,2016-11-05T18:40:00Z,19.8020,-84.8570,5.0,7.0,60.0,9.0,'1111122,1111122,1111122' 
NDBC,ioos:station:wmo:42056:1,2016-11-05T19:40:00Z,19.8020,-84.8570,5.0,7.0,60.0,8.0,'1111122,1111122,1111122' 
NDBC,ioos:station:wmo:42056:1,2016-11-05T20:50:00Z,19.8020,-84.8570,5.0,7.0,50.0,8.0,'1111122,1111122,1111122' 
NDBC,ioos:station:wmo:42056:1,2016-11-05T21:50:00Z,19.8020,-84.8570,5.0,7.0,50.0,9.0,'1111122,1111122,1111122' 
NDBC,ioos:station:wmo:42056:1,2016-11-05T22:40:00Z,19.8020,-84.8570,5.0,7.0,60.0,9.0,'1111122,1111122,1111122' 
NDBC,ioos:station:wmo:42056:1,2016-11-05T23:40:00Z,19.8020,-84.8570,5.0,7.0,60.0,9.0,'1111122,1111122,1111122' 
NDBC,ioos:station:wmo:42056:1,2016-11-06T00:40:00Z,19.8020,-84.8570,5.0,7.0,60.0,9.0,'1111122,1111122,1111122' 
NDBC,ioos:station:wmo:42056:1,2016-11-06T01:20:00Z,19.8020,-84.8570,5.0,7.0,50.0,9.0,'1111122,1111122,1111122' 
NDBC,ioos:station:wmo:42056:1,2016-11-06T02:40:00Z,19.8020,-84.8570,5.0,6.0,60.0,8.0,'1111122,1111122,1111122' 
NDBC,ioos:station:wmo:42056:1,2016-11-06T03:40:00Z,19.8020,-84.8570,5.0,6.0,70.0,8.0,'1111122,1111122,1111122' 
NDBC,ioos:station:wmo:42056:1,2016-11-06T04:40:00Z,19.8020,-84.8570,5.0,8.0,70.0,9.0,'1111122,1111122,1111122' 
NDBC,ioos:station:wmo:42056:1,2016-11-06T05:40:00Z,19.8020,-84.8570,5.0,8.0,60.0,10.0,'1111122,1111122,1111122' 
NDBC,ioos:station:wmo:42056:1,2016-11-06T06:50:00Z,19.8020,-84.8570,5.0,7.0,60.0,9.0,'1111122,1111122,1111122' 
NDBC,ioos:station:wmo:42056:1,2016-11-06T07:40:00Z,19.8020,-84.8570,5.0,8.0,60.0,10.0,'1111122,1111122,1111122' 
NDBC,ioos:station:wmo:42056:1,2016-11-06T08:40:00Z,19.8020,-84.8570,5.0,8.0,60.0,10.0,'1111122,1111122,1111122' 
NDBC,ioos:station:wmo:42056:1,2016-11-06T09:40:00Z,19.8020,-84.8570,5.0,8.0,60.0,10.0,'1111122,1111122,1111122' 
NDBC,ioos:station:wmo:42056:1,2016-11-06T10:40:00Z,19.8020,-84.8570,5.0,8.0,50.0,10.0,'1111122,1111122,1111122' 
NDBC,ioos:station:wmo:42056:1,2016-11-06T11:50:00Z,19.8020,-84.8570,5.0,8.0,60.0,10.0,'1111122,1111122,1111122' 
NDBC,ioos:station:wmo:42056:1,2016-11-06T12:40:00Z,19.8020,-84.8570,5.0,9.0,50.0,11.0,'1111122,1111122,1111122' 
NDBC,ioos:station:wmo:42056:1,2016-11-06T13:30:00Z,19.8020,-84.8570,5.0,9.0,50.0,11.0,'1111122,1111122,1111122' 
NDBC,ioos:station:wmo:42056:1,2016-11-06T14:40:00Z,19.8020,-84.8570,5.0,8.0,50.0,11.0,'1111122,1111122,1111122' 
NDBC,ioos:station:wmo:42056:1,2016-11-06T15:40:00Z,19.8020,-84.8570,5.0,9.0,50.0,11.0,'1111122,1111122,1111122' 
NDBC,ioos:station:wmo:42056:1,2016-11-06T16:40:00Z,19.8020,-84.8570,5.0,8.0,50.0,10.0,'1111122,1111122,1111122' 
NDBC,ioos:station:wmo:42056:1,2016-11-06T17:40:00Z,19.8020,-84.8570,5.0,7.0,50.0,9.0,'1111122,1111122,1111122' 
NDBC,ioos:station:wmo:42056:1,2016-11-06T18:40:00Z,19.8020,-84.8570,5.0,7.0,50.0,9.0,'1111122,1111122,1111122' 
NDBC,ioos:station:wmo:42056:1,2016-11-06T19:40:00Z,19.8020,-84.8570,5.0,6.0,50.0,8.0,'1111122,1111122,1111122' 
NDBC,ioos:station:wmo:42056:1,2016-11-06T20:40:00Z,19.8020,-84.8570,5.0,5.0,60.0,7.0,'1111122,1111122,1111122' 
NDBC,ioos:station:wmo:42056:1,2016-11-06T21:40:00Z,19.8020,-84.8570,5.0,5.0,60.0,7.0,'1111122,1111122,1111122' 
NDBC,ioos:station:wmo:42056:1,2016-11-06T22:40:00Z,19.8020,-84.8570,5.0,6.0,60.0,7.0,'1111122,1111122,1111122' 
NDBC,ioos:station:wmo:42056:1,2016-11-06T23:40:00Z,19.8020,-84.8570,5.0,6.0,70.0,7.0,'1111122,1111122,1111122' 
NDBC,ioos:station:wmo:42056:1,2016-11-07T00:40:00Z,19.8020,-84.8570,5.0,6.0,50.0,7.0,'1111122,1111122,1111122' 
NDBC,ioos:station:wmo:42056:1,2016-11-07T01:40:00Z,19.8020,-84.8570,5.0,7.0,60.0,8.0,'1111122,1111122,1111122' 
NDBC,ioos:station:wmo:42056:1,2016-11-07T02:40:00Z,19.8020,-84.8570,5.0,6.0,60.0,8.0,'1111122,1111122,1111122' 
NDBC,ioos:station:wmo:42056:1,2016-11-07T03:40:00Z,19.8020,-84.8570,5.0,7.0,50.0,9.0,'1111122,1111122,1111122' 
NDBC,ioos:station:wmo:42056:1,2016-11-07T04:40:00Z,19.8020,-84.8570,5.0,6.0,50.0,8.0,'1111122,1111122,1111122' 
NDBC,ioos:station:wmo:42056:1,2016-11-07T05:40:00Z,19.8020,-84.8570,5.0,6.0,50.0,8.0,'1111122,1111122,1111122' 
NDBC,ioos:station:wmo:42056:1,2016-11-07T06:40:00Z,19.8020,-84.8570,5.0,5.0,70.0,7.0,'1111122,1111122,1111122' 
NDBC,ioos:station:wmo:42056:1,2016-11-07T07:50:00Z,19.8020,-84.8570,5.0,6.0,60.0,7.0,'1111122,1111122,1111122' 
NDBC,ioos:station:wmo:42056:1,2016-11-07T08:50:00Z,19.8020,-84.8570,5.0,8.0,20.0,10.0,'1111122,1111122,1111122' 
NDBC,ioos:station:wmo:42056:1,2016-11-07T09:40:00Z,19.8020,-84.8570,5.0,6.0,360.0,8.0,'1111122,1111122,1111122' 
NDBC,ioos:station:wmo:42056:1,2016-11-07T10:40:00Z,19.8020,-84.8570,5.0,6.0,10.0,8.0,'1111122,1111122,1111122' 
NDBC,ioos:station:wmo:42056:1,2016-11-07T11:40:00Z,19.8020,-84.8570,5.0,5.0,360.0,6.0,'1111122,1111122,1111122' 
NDBC,ioos:station:wmo:42056:1,2016-11-07T12:40:00Z,19.8020,-84.8570,5.0,6.0,20.0,7.0,'1111122,1111122,1111122' 
NDBC,ioos:station:wmo:42056:1,2016-11-07T13:40:00Z,19.8020,-84.8570,5.0,8.0,50.0,9.0,'1111122,1111122,1111122' 
NDBC,ioos:station:wmo:42056:1,2016-11-07T14:40:00Z,19.8020,-84.8570,5.0,10.0,30.0,12.0,'1111122,1111122,1111122' 
NDBC,ioos:station:wmo:42056:1,2016-11-07T15:40:00Z,19.8020,-84.8570,5.0,8.0,80.0,11.0,'1111122,1111122,1111122' 
NDBC,ioos:station:wmo:42056:1,2016-11-07T16:40:00Z,19.8020,-84.8570,5.0,6.0,70.0,9.0,'1111122,1111122,1111122' 
NDBC,ioos:station:wmo:42056:1,2016-11-07T17:40:00Z,19.8020,-84.8570,5.0,9.0,50.0,11.0,'1111122,1111122,1111122' 
NDBC,ioos:station:wmo:42056:1,2016-11-07T18:50:00Z,19.8020,-84.8570,5.0,8.0,80.0,11.0,'1111122,1111122,1111122' 
NDBC,ioos:station:wmo:42056:1,2016-11-07T19:50:00Z,19.8020,-84.8570,5.0,8.0,70.0,9.0,'1111122,1111122,1111122' 
NDBC,ioos:station:wmo:42056:1,2016-11-07T20:40:00Z,19.8020,-84.8570,5.0,8.0,80.0,10.0,'1111122,1111122,1111122' 
NDBC,ioos:station:wmo:42056:1,2016-11-07T21:30:00Z,19.8020,-84.8570,5.0,8.0,70.0,10.0,'1111122,1111122,1111122' 
NDBC,ioos:station:wmo:42056:1,2016-11-07T22:40:00Z,19.8020,-84.8570,5.0,9.0,60.0,11.0,'1111122,1111122,1111122' 
NDBC,ioos:station:wmo:42056:1,2016-11-07T23:40:00Z,19.8020,-84.8570,5.0,9.0,60.0,11.0,'1111122,1111122,1111122' 
NDBC,ioos:station:wmo:42056:1,2016-11-08T00:40:00Z,19.8020,-84.8570,5.0,9.0,70.0,11.0,'1111122,1111122,1111122' 
NDBC,ioos:station:wmo:42056:1,2016-11-08T01:20:00Z,19.8020,-84.8570,5.0,10.0,70.0,12.0,'1111122,1111122,1111122' 
NDBC,ioos:station:wmo:42056:1,2016-11-08T02:00:00Z,19.8020,-84.8570,5.0,9.0,60.0,12.0,'1111122,1111122,1111122' 
NDBC,ioos:station:wmo:42056:1,2016-11-08T04:50:00Z,19.8020,-84.8570,5.0,9.0,70.0,10.0,'1111122,1111122,1111122' 
NDBC,ioos:station:wmo:42056:1,2016-11-08T07:40:00Z,19.8020,-84.8570,5.0,8.0,70.0,10.0,'1111122,1111122,1111122' 
NDBC,ioos:station:wmo:42056:1,2016-11-08T08:40:00Z,19.8020,-84.8570,5.0,8.0,60.0,10.0,'1111122,1111122,1111122' 
NDBC,ioos:station:wmo:42056:1,2016-11-08T09:40:00Z,19.8020,-84.8570,5.0,8.0,60.0,10.0,'1111122,1111122,1111122' 
NDBC,ioos:station:wmo:42056:1,2016-11-08T10:40:00Z,19.8020,-84.8570,5.0,8.0,70.0,10.0,'1111122,1111122,1111122' 
NDBC,ioos:station:wmo:42056:1,2016-11-08T11:40:00Z,19.8020,-84.8570,5.0,8.0,70.0,10.0,'1111122,1111122,1111122' 
NDBC,ioos:station:wmo:42056:1,2016-11-08T12:30:00Z,19.8020,-84.8570,5.0,9.0,60.0,10.0,'1111122,1111122,1111122' 
NDBC,ioos:station:wmo:42056:1,2016-11-08T12:40:00Z,19.8020,-84.8570,5.0,8.0,70.0,10.0,'1111122,1111122,1111122' 
NDBC,ioos:station:wmo:42056:1,2016-11-08T15:40:00Z,19.8020,-84.8570,5.0,8.0,60.0,10.0,'1111122,1111122,1111122' 
NDBC,ioos:station:wmo:42056:1,2016-11-08T16:40:00Z,19.8020,-84.8570,5.0,7.0,60.0,8.0,'1111122,1111122,1111122' 
NDBC,ioos:station:wmo:42056:1,2016-11-08T17:40:00Z,19.8020,-84.8570,5.0,7.0,50.0,9.0,'1111122,1111122,1111122' 
NDBC,ioos:station:wmo:42056:1,2016-11-08T18:40:00Z,19.8020,-84.8570,5.0,5.0,60.0,6.0,'1111122,1111122,1111122' 
NDBC,ioos:station:wmo:42056:1,2016-11-08T19:40:00Z,19.8020,-84.8570,5.0,8.0,40.0,9.0,'1111122,1111122,1111122' 
NDBC,ioos:station:wmo:42056:1,2016-11-08T20:40:00Z,19.8020,-84.8570,5.0,9.0,60.0,11.0,'1111122,1111122,1111122' 
NDBC,ioos:station:wmo:42056:1,2016-11-08T21:50:00Z,19.8020,-84.8570,5.0,9.0,60.0,11.0,'1111122,1111122,1111122' 
NDBC,ioos:station:wmo:42056:1,2016-11-08T22:40:00Z,19.8020,-84.8570,5.0,9.0,60.0,11.0,'1111122,1111122,1111122' 
NDBC,ioos:station:wmo:42056:1,2016-11-08T23:40:00Z,19.8020,-84.8570,5.0,6.0,50.0,8.0,'1111122,1111122,1111122' 
NDBC,ioos:station:wmo:42056:1,2016-11-09T00:40:00Z,19.8020,-84.8570,5.0,9.0,90.0,11.0,'1111122,1111122,1111122' 
NDBC,ioos:station:wmo:42056:1,2016-11-09T01:40:00Z,19.8020,-84.8570,5.0,10.0,80.0,12.0,'1111122,1111122,1111122' 
NDBC,ioos:station:wmo:42056:1,2016-11-09T02:40:00Z,19.8020,-84.8570,5.0,10.0,90.0,12.0,'1111122,1111122,1111122' 
NDBC,ioos:station:wmo:42056:1,2016-11-09T03:40:00Z,19.8020,-84.8570,5.0,11.0,90.0,13.0,'1111122,1111122,1111122' 
NDBC,ioos:station:wmo:42056:1,2016-11-09T04:40:00Z,19.8020,-84.8570,5.0,10.0,90.0,12.0,'1111122,1111122,1111122' 
NDBC,ioos:station:wmo:42056:1,2016-11-09T05:40:00Z,19.8020,-84.8570,5.0,10.0,90.0,12.0,'1111122,1111122,1111122' 
NDBC,ioos:station:wmo:42056:1,2016-11-09T06:40:00Z,19.8020,-84.8570,5.0,9.0,90.0,11.0,'1111122,1111122,1111122' 
NDBC,ioos:station:wmo:42056:1,2016-11-09T07:40:00Z,19.8020,-84.8570,5.0,9.0,80.0,11.0,'1111122,1111122,1111122' 
NDBC,ioos:station:wmo:42056:1,2016-11-09T08:40:00Z,19.8020,-84.8570,5.0,9.0,80.0,11.0,'1111122,1111122,1111122' 
NDBC,ioos:station:wmo:42056:1,2016-11-09T09:40:00Z,19.8020,-84.8570,5.0,9.0,70.0,11.0,'1111122,1111122,1111122' 
NDBC,ioos:station:wmo:42056:1,2016-11-09T10:40:00Z,19.8020,-84.8570,5.0,8.0,90.0,10.0,'1111122,1111122,1111122' 
NDBC,ioos:station:wmo:42056:1,2016-11-09T11:40:00Z,19.8020,-84.8570,5.0,9.0,70.0,11.0,'1111122,1111122,1111122' 
NDBC,ioos:station:wmo:42056:1,2016-11-09T12:40:00Z,19.8020,-84.8570,5.0,8.0,80.0,10.0,'1111122,1111122,1111122' 
NDBC,ioos:station:wmo:42056:1,2016-11-09T13:00:00Z,19.8020,-84.8570,5.0,8.0,80.0,11.0,'1111122,1111122,1111122' 
NDBC,ioos:station:wmo:42056:1,2016-11-09T14:50:00Z,19.8020,-84.8570,5.0,7.0,80.0,9.0,'1111122,1111122,1111122' 
NDBC,ioos:station:wmo:42056:1,2016-11-09T15:40:00Z,19.8020,-84.8570,5.0,8.0,80.0,9.0,'1111122,1111122,1111122' 
NDBC,ioos:station:wmo:42056:1,2016-11-09T16:40:00Z,19.8020,-84.8570,5.0,7.0,80.0,9.0,'1111122,1111122,1111122' 
NDBC,ioos:station:wmo:42056:1,2016-11-09T17:40:00Z,19.8020,-84.8570,5.0,7.0,90.0,8.0,'1111122,1111122,1111122' 
NDBC,ioos:station:wmo:42056:1,2016-11-09T18:40:00Z,19.8020,-84.8570,5.0,7.0,90.0,9.0,'1111122,1111122,1111122' 
NDBC,ioos:station:wmo:42056:1,2016-11-09T19:50:00Z,19.8020,-84.8570,5.0,6.0,90.0,8.0,'1111122,1111122,1111122' 
NDBC,ioos:station:wmo:42056:1,2016-11-09T20:40:00Z,19.8020,-84.8570,5.0,5.0,80.0,7.0,'1111122,1111122,1111122' 
NDBC,ioos:station:wmo:42056:1,2016-11-09T21:40:00Z,19.8020,-84.8570,5.0,6.0,90.0,7.0,'1111122,1111122,1111122' 
NDBC,ioos:station:wmo:42056:1,2016-11-09T22:40:00Z,19.8020,-84.8570,5.0,5.0,80.0,6.0,'1111122,1111122,1111122' 
NDBC,ioos:station:wmo:42056:1,2016-11-09T23:40:00Z,19.8020,-84.8570,5.0,5.0,80.0,7.0,'1111122,1111122,1111122' 
NDBC,ioos:station:wmo:42056:1,2016-11-10T00:40:00Z,19.8020,-84.8570,5.0,6.0,80.0,7.0,'1111122,1111122,1111122' 
NDBC,ioos:station:wmo:42056:1,2016-11-10T01:30:00Z,19.8020,-84.8570,5.0,6.0,80.0,8.0,'1111122,1111122,1111122' 
NDBC,ioos:station:wmo:42056:1,2016-11-10T02:40:00Z,19.8020,-84.8570,5.0,8.0,70.0,9.0,'1111122,1111122,1111122' 
NDBC,ioos:station:wmo:42056:1,2016-11-10T03:40:00Z,19.8020,-84.8570,5.0,7.0,70.0,9.0,'1111122,1111122,1111122' 
NDBC,ioos:station:wmo:42056:1,2016-11-10T04:40:00Z,19.8020,-84.8570,5.0,7.0,80.0,8.0,'1111122,1111122,1111122' 
NDBC,ioos:station:wmo:42056:1,2016-11-10T05:40:00Z,19.8020,-84.8570,5.0,6.0,70.0,8.0,'1111122,1111122,1111122' 
NDBC,ioos:station:wmo:42056:1,2016-11-10T07:00:00Z,19.8020,-84.8570,5.0,6.0,70.0,7.0,'1111122,1111122,1111122' 
NDBC,ioos:station:wmo:42056:1,2016-11-10T07:40:00Z,19.8020,-84.8570,5.0,6.0,70.0,7.0,'1111122,1111122,1111122' 
NDBC,ioos:station:wmo:42056:1,2016-11-10T08:40:00Z,19.8020,-84.8570,5.0,5.0,70.0,7.0,'1111122,1111122,1111122' 
NDBC,ioos:station:wmo:42056:1,2016-11-10T09:40:00Z,19.8020,-84.8570,5.0,6.0,60.0,7.0,'1111122,1111122,1111122' 
NDBC,ioos:station:wmo:42056:1,2016-11-10T10:40:00Z,19.8020,-84.8570,5.0,6.0,50.0,7.0,'1111122,1111122,1111122' 
NDBC,ioos:station:wmo:42056:1,2016-11-10T11:40:00Z,19.8020,-84.8570,5.0,6.0,50.0,8.0,'1111122,1111122,1111122' 
NDBC,ioos:station:wmo:42056:1,2016-11-10T12:40:00Z,19.8020,-84.8570,5.0,7.0,50.0,8.0,'1111122,1111122,1111122' 
NDBC,ioos:station:wmo:42056:1,2016-11-10T13:40:00Z,19.8020,-84.8570,5.0,7.0,50.0,9.0,'1111122,1111122,1111122' 
NDBC,ioos:station:wmo:42056:1,2016-11-10T14:40:00Z,19.8020,-84.8570,5.0,7.0,60.0,8.0,'1111122,1111122,1111122' 
NDBC,ioos:station:wmo:42056:1,2016-11-10T15:40:00Z,19.8020,-84.8570,5.0,7.0,60.0,8.0,'1111122,1111122,1111122' 
NDBC,ioos:station:wmo:42056:1,2016-11-10T16:40:00Z,19.8020,-84.8570,5.0,7.0,70.0,8.0,'1111122,1111122,1111122' 